sat.trackr.live / text

‹ back to catalog

STARLINK-1554

NORAD 46055 · 2020-055AE

PAYLOAD ACTIVE UNKNOWN

§ Identity

Operator
Country
US
Launch date
2020-08-07
Launch site
AFETR
Launch vehicle
Mass (kg)
RCS (m²)

Purposes: comms

External: N2YO · Heavens-Above · Gunter

§ Orbital elements

Epoch: 2026-09-13T04:21:18.906048Z

Period
94.01 min
Inclination
53.1612°
Eccentricity
0.0001260
Mean motion
15.31705883 rev/d
Perigee alt
469.9 km
Apogee alt
471.6 km
Semi-major
6,848.9 km
B*
7.9413e-5
RAAN
321.4983°
Arg perigee
84.7209°
Mean anomaly
275.3936°
Rev number
33,780

§ Raw data

STARLINK-15541 46055U 20055AE  26256.18146882  .00002100  00000+0  79413-4 0  99912 46055  53.1612 321.4983 0001260  84.7209 275.3936 15.31705883337806

JSON: /api/v1/satellites/46055 · /tle

For live sub-satellite position, see the globe view (requires WebGL).

§ Visibility from observer

Set your observer location to see the next 7 days of passes ≥ 10°. The values pass through the URL so the page stays shareable.

No JS? Fill the form by hand. The geolocation button needs JavaScript.